FRS96 EDDM-LOLH

Flight info

Callsign FRS96
Flight time 0h 49m
Altitude 3500
Route DCT LOLK DCT
Aircraft C182/L-DGY/L

Departure

Time 2026-05-05 18:47
Airport Munich Airport (EDDM)

Arrival

Time 2026-05-05 19:37
Airport Hofkirchen Airfield (LOLH)
Time Latitude Longitude Altitude Speed Heading
2026-05-05 18:27 48.35350 11.80377 1481 ft 0 kts 263°
2026-05-05 18:40 48.35350 11.80375 1481 ft 1 kts 282°
2026-05-05 18:41 48.35383 11.80416 1481 ft 17 kts 360°
2026-05-05 18:41 48.35418 11.80357 1481 ft 7 kts 265°
2026-05-05 18:41 48.35406 11.80204 1481 ft 14 kts 241°
2026-05-05 18:41 48.35301 11.80202 1478 ft 22 kts 172°
2026-05-05 18:42 48.35149 11.80229 1476 ft 22 kts 175°
2026-05-05 18:42 48.35097 11.80054 1475 ft 27 kts 262°
2026-05-05 18:42 48.35075 11.79749 1481 ft 22 kts 264°
2026-05-05 18:42 48.34999 11.79668 1481 ft 14 kts 172°
2026-05-05 18:43 48.34908 11.79684 1481 ft 12 kts 174°
2026-05-05 18:43 48.34830 11.79700 1477 ft 11 kts 171°
2026-05-05 18:43 48.34715 11.79712 1481 ft 20 kts 194°
2026-05-05 18:43 48.34636 11.79561 1481 ft 22 kts 232°
2026-05-05 18:44 48.34522 11.79337 1481 ft 25 kts 234°
2026-05-05 18:44 48.34488 11.79269 1477 ft 0 kts 231°
2026-05-05 18:46 48.34488 11.79268 1477 ft 2 kts 231°
2026-05-05 18:46 48.34403 11.79081 1481 ft 40 kts 242°
2026-05-05 18:46 48.34333 11.78490 1484 ft 76 kts 263°
2026-05-05 18:46 48.34260 11.77659 1668 ft 82 kts 262°
2026-05-05 18:47 48.34189 11.76829 1905 ft 83 kts 261°
2026-05-05 18:47 48.33911 11.76034 2042 ft 93 kts 213°
2026-05-05 18:47 48.33278 11.76264 2128 ft 109 kts 134°
2026-05-05 18:47 48.32776 11.77142 2302 ft 112 kts 126°
2026-05-05 18:48 48.32367 11.78160 2480 ft 118 kts 117°
2026-05-05 18:48 48.32029 11.79334 2624 ft 123 kts 109°
2026-05-05 18:48 48.31479 11.80270 2761 ft 121 kts 150°
2026-05-05 18:48 48.30675 11.80612 2860 ft 123 kts 174°
2026-05-05 18:49 48.29793 11.80907 2916 ft 127 kts 171°
2026-05-05 18:49 48.28946 11.80969 2991 ft 122 kts 195°
2026-05-05 18:49 48.28073 11.80893 3036 ft 129 kts 188°
2026-05-05 18:49 48.27138 11.80893 3095 ft 138 kts 186°
2026-05-05 18:50 48.26163 11.80899 3146 ft 142 kts 185°
2026-05-05 18:50 48.25172 11.80904 3098 ft 142 kts 184°
2026-05-05 18:50 48.24179 11.80915 3097 ft 145 kts 185°
2026-05-05 18:50 48.23173 11.80973 3085 ft 146 kts 176°
2026-05-05 18:51 48.22334 11.81859 3051 ft 151 kts 132°
2026-05-05 18:51 48.21691 11.83096 3082 ft 152 kts 128°
2026-05-05 18:51 48.21206 11.84504 3088 ft 156 kts 99°
2026-05-05 18:51 48.21090 11.86075 3054 ft 151 kts 94°
2026-05-05 18:52 48.21001 11.87645 3113 ft 153 kts 93°
2026-05-05 18:52 48.20912 11.89230 3084 ft 153 kts 94°
2026-05-05 18:52 48.20824 11.90830 3096 ft 154 kts 92°
2026-05-05 18:52 48.20725 11.92411 3083 ft 152 kts 94°
2026-05-05 18:53 48.20628 11.93967 3075 ft 149 kts 94°
2026-05-05 18:53 48.20524 11.95534 3075 ft 152 kts 94°
2026-05-05 18:53 48.20425 11.97109 3093 ft 152 kts 93°
2026-05-05 18:53 48.20335 11.98676 3055 ft 149 kts 93°
2026-05-05 18:54 48.20236 12.00221 3069 ft 150 kts 93°
2026-05-05 18:54 48.20134 12.01779 3034 ft 149 kts 93°
2026-05-05 18:54 48.20031 12.03308 3019 ft 146 kts 93°
2026-05-05 18:54 48.19931 12.04812 3016 ft 143 kts 93°
2026-05-05 18:55 48.19824 12.06277 3159 ft 137 kts 93°
2026-05-05 18:55 48.19743 12.07630 3379 ft 129 kts 93°
2026-05-05 18:55 48.19664 12.08983 3527 ft 133 kts 93°
2026-05-05 18:55 48.19582 12.10427 3554 ft 142 kts 93°
2026-05-05 18:56 48.19497 12.11898 3517 ft 141 kts 93°
2026-05-05 18:56 48.19412 12.13361 3564 ft 142 kts 94°
2026-05-05 18:56 48.19325 12.14835 3526 ft 142 kts 93°
2026-05-05 18:56 48.19223 12.16302 3524 ft 142 kts 93°
2026-05-05 18:57 48.19117 12.17768 3511 ft 141 kts 93°
2026-05-05 18:57 48.19020 12.19232 3521 ft 141 kts 93°
2026-05-05 18:57 48.18920 12.20696 3518 ft 141 kts 93°
2026-05-05 18:57 48.18813 12.22159 3540 ft 143 kts 94°
2026-05-05 18:58 48.18706 12.23651 3540 ft 144 kts 93°
2026-05-05 18:58 48.18600 12.25141 3560 ft 145 kts 93°
2026-05-05 18:58 48.18487 12.26642 3571 ft 146 kts 94°
2026-05-05 18:58 48.18365 12.28160 3594 ft 149 kts 93°
2026-05-05 18:59 48.18244 12.29718 3587 ft 151 kts 94°
2026-05-05 18:59 48.18132 12.31302 3637 ft 158 kts 94°
2026-05-05 18:59 48.17999 12.32987 3613 ft 163 kts 94°
2026-05-05 18:59 48.17871 12.34643 3575 ft 157 kts 93°
2026-05-05 19:00 48.17791 12.36247 3575 ft 152 kts 79°
2026-05-05 19:00 48.18104 12.37715 3585 ft 146 kts 63°
2026-05-05 19:00 48.18504 12.39111 3610 ft 146 kts 60°
2026-05-05 19:00 48.18931 12.40482 3584 ft 145 kts 57°
2026-05-05 19:01 48.19354 12.41831 3598 ft 145 kts 60°
2026-05-05 19:01 48.19790 12.43181 3572 ft 144 kts 62°
2026-05-05 19:01 48.20120 12.44598 3577 ft 144 kts 67°
2026-05-05 19:01 48.20333 12.46082 3623 ft 149 kts 80°
2026-05-05 19:02 48.20470 12.47634 3658 ft 153 kts 78°
2026-05-05 19:02 48.20622 12.49205 3624 ft 152 kts 79°
2026-05-05 19:02 48.20744 12.50769 3600 ft 150 kts 79°
2026-05-05 19:02 48.20857 12.52323 3519 ft 151 kts 79°
2026-05-05 19:03 48.20942 12.53872 3484 ft 148 kts 80°
2026-05-05 19:03 48.21035 12.55422 3433 ft 150 kts 79°
2026-05-05 19:03 48.21131 12.56977 3366 ft 149 kts 79°
2026-05-05 19:03 48.21232 12.58518 3406 ft 149 kts 79°
2026-05-05 19:04 48.21328 12.60084 3391 ft 154 kts 81°
2026-05-05 19:04 48.21419 12.61655 3370 ft 162 kts 79°
2026-05-05 19:04 48.21556 12.63288 3437 ft 156 kts 79°
2026-05-05 19:04 48.21539 12.64915 3415 ft 150 kts 86°
2026-05-05 19:05 48.21569 12.66468 3360 ft 147 kts 80°
2026-05-05 19:05 48.21675 12.68034 3343 ft 152 kts 78°
2026-05-05 19:05 48.21813 12.69583 3363 ft 149 kts 77°
2026-05-05 19:05 48.21948 12.71109 3355 ft 147 kts 78°
2026-05-05 19:06 48.22097 12.72593 3332 ft 144 kts 76°
2026-05-05 19:06 48.22263 12.74067 3252 ft 142 kts 76°
2026-05-05 19:06 48.22420 12.75532 3171 ft 143 kts 76°
2026-05-05 19:06 48.22552 12.77003 3089 ft 143 kts 78°
2026-05-05 19:07 48.22630 12.78491 3028 ft 144 kts 80°
2026-05-05 19:07 48.22676 12.79977 2936 ft 142 kts 82°
2026-05-05 19:07 48.22700 12.81485 3008 ft 149 kts 81°
2026-05-05 19:07 48.22716 12.83035 3002 ft 145 kts 85°
2026-05-05 19:08 48.22718 12.84475 3116 ft 132 kts 84°
2026-05-05 19:08 48.22701 12.85811 3238 ft 127 kts 82°
2026-05-05 19:08 48.22709 12.87154 3335 ft 133 kts 84°
2026-05-05 19:08 48.22721 12.88595 3393 ft 142 kts 84°
2026-05-05 19:09 48.22738 12.90083 3341 ft 143 kts 84°
2026-05-05 19:09 48.22744 12.91569 3327 ft 141 kts 84°
2026-05-05 19:09 48.22753 12.93045 3414 ft 147 kts 81°
2026-05-05 19:09 48.22746 12.94595 3383 ft 148 kts 85°
2026-05-05 19:10 48.22689 12.96144 3411 ft 151 kts 94°
2026-05-05 19:10 48.22529 12.97692 3338 ft 148 kts 96°
2026-05-05 19:10 48.22359 12.99204 3335 ft 147 kts 96°
2026-05-05 19:10 48.22171 13.00742 3370 ft 150 kts 97°
2026-05-05 19:11 48.21991 13.02275 3392 ft 150 kts 92°
2026-05-05 19:11 48.21822 13.03824 3387 ft 151 kts 96°
2026-05-05 19:11 48.21638 13.05366 3338 ft 149 kts 96°
2026-05-05 19:11 48.21458 13.06866 3308 ft 147 kts 95°
2026-05-05 19:12 48.21272 13.08378 3356 ft 147 kts 97°
2026-05-05 19:12 48.21115 13.09887 3358 ft 147 kts 94°
2026-05-05 19:12 48.20978 13.11416 3364 ft 148 kts 91°
2026-05-05 19:12 48.20864 13.12961 3394 ft 150 kts 91°
2026-05-05 19:13 48.20751 13.14532 3383 ft 152 kts 91°
2026-05-05 19:13 48.20655 13.16102 3395 ft 151 kts 92°
2026-05-05 19:13 48.20554 13.17687 3383 ft 153 kts 91°
2026-05-05 19:13 48.20452 13.19250 3320 ft 149 kts 91°
2026-05-05 19:14 48.20345 13.20788 3311 ft 148 kts 91°
2026-05-05 19:14 48.20235 13.22330 3389 ft 151 kts 92°
2026-05-05 19:14 48.20137 13.23909 3352 ft 151 kts 91°
2026-05-05 19:14 48.20041 13.25457 3392 ft 150 kts 92°
2026-05-05 19:15 48.19946 13.27015 3391 ft 150 kts 90°
2026-05-05 19:15 48.19845 13.28576 3382 ft 149 kts 91°
2026-05-05 19:15 48.19728 13.30131 3380 ft 150 kts 92°
2026-05-05 19:15 48.19617 13.31694 3416 ft 152 kts 93°
2026-05-05 19:16 48.19526 13.33207 3460 ft 142 kts 92°
2026-05-05 19:16 48.19437 13.34710 3467 ft 147 kts 91°
2026-05-05 19:16 48.19339 13.36242 3377 ft 148 kts 91°
2026-05-05 19:16 48.19232 13.37763 3369 ft 146 kts 91°
2026-05-05 19:17 48.19126 13.39275 3320 ft 145 kts 92°
2026-05-05 19:17 48.19042 13.40801 3367 ft 149 kts 91°
2026-05-05 19:17 48.18956 13.42356 3382 ft 151 kts 90°
2026-05-05 19:17 48.18893 13.43397 3408 ft 152 kts 91°
2026-05-05 19:18 48.18819 13.44504 3349 ft 147 kts 93°
2026-05-05 19:18 48.18701 13.46020 3360 ft 146 kts 92°
2026-05-05 19:18 48.18598 13.47539 3374 ft 148 kts 91°
2026-05-05 19:18 48.18516 13.49069 3367 ft 150 kts 90°
2026-05-05 19:19 48.18464 13.50663 3244 ft 157 kts 89°
2026-05-05 19:19 48.18422 13.52298 3054 ft 158 kts 89°
2026-05-05 19:19 48.18393 13.53994 2818 ft 167 kts 89°
2026-05-05 19:19 48.18374 13.55757 2542 ft 170 kts 88°
2026-05-05 19:20 48.18462 13.57485 2327 ft 161 kts 65°
2026-05-05 19:20 48.18928 13.58931 2239 ft 153 kts 71°
2026-05-05 19:20 48.19167 13.60439 2194 ft 145 kts 73°
2026-05-05 19:20 48.19382 13.61890 2187 ft 141 kts 73°
2026-05-05 19:21 48.19574 13.63279 2351 ft 125 kts 74°
2026-05-05 19:21 48.19742 13.64524 2645 ft 123 kts 73°
2026-05-05 19:21 48.19902 13.65735 2901 ft 115 kts 73°
2026-05-05 19:21 48.20049 13.66900 3123 ft 117 kts 74°
2026-05-05 19:22 48.20204 13.68114 3246 ft 127 kts 74°
2026-05-05 19:22 48.20380 13.69474 3267 ft 137 kts 73°
2026-05-05 19:22 48.20542 13.70926 3284 ft 147 kts 85°
2026-05-05 19:22 48.20097 13.72302 3284 ft 153 kts 139°
2026-05-05 19:23 48.19126 13.72916 3312 ft 153 kts 168°
2026-05-05 19:23 48.18114 13.72914 3283 ft 145 kts 198°
2026-05-05 19:23 48.17117 13.72669 3322 ft 146 kts 195°
2026-05-05 19:23 48.16111 13.72416 3296 ft 146 kts 195°
2026-05-05 19:24 48.15114 13.72171 3290 ft 144 kts 195°
2026-05-05 19:24 48.14124 13.71915 3296 ft 143 kts 195°
2026-05-05 19:24 48.13151 13.71667 3278 ft 141 kts 196°
2026-05-05 19:24 48.12151 13.71405 3166 ft 152 kts 195°
2026-05-05 19:25 48.11087 13.71739 2938 ft 168 kts 151°
2026-05-05 19:25 48.10397 13.73146 2696 ft 171 kts 107°
2026-05-05 19:25 48.10185 13.74886 2539 ft 169 kts 96°
2026-05-05 19:25 48.10056 13.76614 2442 ft 164 kts 94°
2026-05-05 19:26 48.09951 13.78282 2399 ft 159 kts 94°
2026-05-05 19:26 48.09853 13.79923 2395 ft 157 kts 94°
2026-05-05 19:26 48.09797 13.81004 2373 ft 157 kts 92°
2026-05-05 19:26 48.09704 13.82628 2389 ft 157 kts 93°
2026-05-05 19:27 48.09632 13.84276 2383 ft 161 kts 92°
2026-05-05 19:27 48.09544 13.85943 2395 ft 161 kts 93°
2026-05-05 19:27 48.09463 13.87608 2398 ft 160 kts 93°
2026-05-05 19:27 48.09388 13.89258 2379 ft 157 kts 92°
2026-05-05 19:28 48.09336 13.90894 2462 ft 158 kts 87°
2026-05-05 19:28 48.09572 13.92505 2485 ft 159 kts 73°
2026-05-05 19:28 48.09821 13.94108 2446 ft 156 kts 73°
2026-05-05 19:28 48.10066 13.95693 2469 ft 157 kts 73°
2026-05-05 19:29 48.10322 13.97299 2474 ft 159 kts 73°
2026-05-05 19:29 48.10565 13.98888 2457 ft 157 kts 72°
2026-05-05 19:29 48.10832 14.00466 2450 ft 156 kts 72°
2026-05-05 19:29 48.11097 14.02051 2460 ft 157 kts 72°
2026-05-05 19:30 48.11009 14.03699 2455 ft 161 kts 101°
2026-05-05 19:30 48.11042 14.05357 2494 ft 161 kts 83°
2026-05-05 19:30 48.11049 14.07035 2483 ft 162 kts 88°
2026-05-05 19:30 48.11044 14.08719 2483 ft 161 kts 88°
2026-05-05 19:31 48.11016 14.10388 2473 ft 160 kts 89°
2026-05-05 19:31 48.11009 14.12065 2462 ft 160 kts 90°
2026-05-05 19:31 48.11007 14.13727 2464 ft 160 kts 89°
2026-05-05 19:31 48.10990 14.15356 2478 ft 158 kts 90°
2026-05-05 19:32 48.10986 14.17010 2476 ft 159 kts 90°
2026-05-05 19:32 48.10932 14.18659 2457 ft 158 kts 90°
2026-05-05 19:32 48.10916 14.20313 2448 ft 160 kts 89°
2026-05-05 19:32 48.10803 14.21970 2412 ft 160 kts 95°
2026-05-05 19:33 48.10650 14.23642 2256 ft 164 kts 99°
2026-05-05 19:33 48.10134 14.25145 2128 ft 161 kts 124°
2026-05-05 19:33 48.09822 14.26613 2282 ft 136 kts 88°
2026-05-05 19:33 48.09911 14.27968 2318 ft 131 kts 83°
2026-05-05 19:34 48.09971 14.29464 2261 ft 149 kts 86°
2026-05-05 19:34 48.10076 14.31061 2253 ft 160 kts 78°
2026-05-05 19:34 48.10237 14.32779 2096 ft 170 kts 79°
2026-05-05 19:35 48.10701 14.36215 2021 ft 159 kts 65°
2026-05-05 19:35 48.11272 14.37234 2366 ft 108 kts 11°
2026-05-05 19:35 48.11965 14.37297 2400 ft 104 kts 349°
2026-05-05 19:35 48.12734 14.37167 2175 ft 117 kts 345°
2026-05-05 19:36 48.13564 14.36944 1817 ft 124 kts 342°
2026-05-05 19:36 48.14331 14.36523 1732 ft 102 kts 310°
2026-05-05 19:36 48.14205 14.35536 1509 ft 107 kts 245°
2026-05-05 19:36 48.14024 14.34650 1310 ft 74 kts 262°
2026-05-05 19:37 48.13958 14.34043 1194 ft 44 kts 259°
2026-05-05 19:37 48.13920 14.33701 1178 ft 30 kts 259°
2026-05-05 19:37 48.13887 14.33402 1180 ft 22 kts 264°
2026-05-05 19:37 48.13924 14.33339 1178 ft 0 kts 349°
2026-05-05 19:38 48.13936 14.33287 1180 ft 11 kts 265°
2026-05-05 19:38 48.13921 14.33268 1180 ft 0 kts 167°